TimeCDT,TemperatureF,Dew PointF,Humidity,Sea Level PressureIn,VisibilityMPH,Wind Direction,Wind SpeedMPH,Gust SpeedMPH,PrecipitationIn,Events,Conditions,WindDirDegrees,DateUTC
12:00 AM,50.0,15.8,26,29.96,7.0,WNW,11.5,-,N/A,,Overcast,300,2012-10-19 05:00:00
12:20 AM,48.2,15.8,27,29.96,9.0,West,6.9,-,N/A,,Overcast,280,2012-10-19 05:20:00
12:40 AM,48.2,15.8,27,29.95,8.0,West,8.1,-,N/A,,Mostly Cloudy,270,2012-10-19 05:40:00
1:00 AM,48.2,15.8,27,29.95,10.0,WNW,10.4,-,N/A,,Mostly Cloudy,290,2012-10-19 06:00:00
1:20 AM,48.2,14.0,25,29.95,10.0,WNW,10.4,-,N/A,,Partly Cloudy,290,2012-10-19 06:20:00
1:40 AM,50.0,14.0,24,29.95,10.0,WNW,13.8,18.4,N/A,,Clear,300,2012-10-19 06:40:00
2:00 AM,50.0,14.0,24,29.96,10.0,WNW,13.8,20.7,N/A,,Clear,300,2012-10-19 07:00:00
2:20 AM,51.8,14.0,22,29.96,10.0,NW,16.1,20.7,N/A,,Clear,310,2012-10-19 07:20:00
2:40 AM,46.4,15.8,29,29.97,10.0,West,9.2,-,N/A,,Clear,260,2012-10-19 07:40:00
3:00 AM,42.8,15.8,34,29.97,10.0,West,12.7,-,N/A,,Clear,260,2012-10-19 08:00:00
3:40 AM,42.8,15.8,34,29.97,10.0,West,11.5,-,N/A,,Clear,280,2012-10-19 08:40:00
4:00 AM,44.6,14.0,29,29.96,10.0,West,10.4,-,N/A,,Clear,280,2012-10-19 09:00:00
4:40 AM,44.6,14.0,29,29.97,10.0,WNW,11.5,-,N/A,,Clear,300,2012-10-19 09:40:00
5:00 AM,46.4,14.0,27,29.97,10.0,NW,13.8,-,N/A,,Clear,310,2012-10-19 10:00:00
5:20 AM,50.0,10.4,20,29.97,10.0,NW,16.1,21.9,N/A,,Clear,320,2012-10-19 10:20:00
5:40 AM,50.0,10.4,20,29.97,10.0,NW,15.0,24.2,N/A,,Clear,320,2012-10-19 10:40:00
6:00 AM,50.0,10.4,20,29.97,10.0,NW,18.4,23.0,N/A,,Clear,310,2012-10-19 11:00:00
6:20 AM,48.2,12.2,24,29.98,10.0,NW,15.0,21.9,N/A,,Clear,310,2012-10-19 11:20:00
6:40 AM,48.2,12.2,24,29.98,10.0,NW,13.8,19.6,N/A,,Clear,310,2012-10-19 11:40:00
7:00 AM,48.2,12.2,24,29.97,10.0,NW,13.8,21.9,N/A,,Clear,310,2012-10-19 12:00:00
7:20 AM,48.2,12.2,24,29.97,10.0,NW,16.1,21.9,N/A,,Clear,310,2012-10-19 12:20:00
7:40 AM,48.2,10.4,22,29.97,10.0,NW,13.8,21.9,N/A,,Clear,320,2012-10-19 12:40:00
8:00 AM,50.0,12.2,22,29.97,10.0,NW,13.8,-,N/A,,Clear,320,2012-10-19 13:00:00
8:40 AM,51.8,12.2,21,29.99,10.0,NW,16.1,24.2,N/A,,Clear,310,2012-10-19 13:40:00
9:00 AM,53.6,12.2,19,29.99,10.0,NW,20.7,26.5,N/A,,Clear,320,2012-10-19 14:00:00
9:20 AM,55.4,12.2,18,29.99,10.0,NW,21.9,27.6,N/A,,Clear,320,2012-10-19 14:20:00
9:40 AM,57.2,12.2,17,30.00,10.0,NNW,20.7,31.1,N/A,,Clear,330,2012-10-19 14:40:00
10:00 AM,57.2,14.0,18,30.00,10.0,NW,23.0,27.6,N/A,,Clear,320,2012-10-19 15:00:00
10:40 AM,62.6,12.2,14,30.00,10.0,NNW,17.3,27.6,N/A,,Clear,330,2012-10-19 15:40:00
11:00 AM,62.6,10.4,13,30.00,10.0,NNW,17.3,28.8,N/A,,Clear,330,2012-10-19 16:00:00
11:20 AM,64.4,8.6,11,29.99,10.0,NNW,20.7,27.6,N/A,,Clear,330,2012-10-19 16:20:00
11:40 AM,66.2,5.0,9,29.99,10.0,NW,19.6,28.8,N/A,,Clear,320,2012-10-19 16:40:00
12:00 PM,66.2,1.4,8,29.98,10.0,NNW,19.6,29.9,N/A,,Clear,330,2012-10-19 17:00:00
12:20 PM,68.0,1.4,7,29.98,10.0,NNW,21.9,27.6,N/A,,Clear,330,2012-10-19 17:20:00
12:40 PM,68.0,3.2,8,29.97,10.0,NW,18.4,26.5,N/A,,Clear,310,2012-10-19 17:40:00
1:00 PM,68.0,1.4,7,29.96,10.0,NW,19.6,29.9,N/A,,Clear,320,2012-10-19 18:00:00
1:20 PM,69.8,1.4,7,29.94,10.0,NW,17.3,25.3,N/A,,Clear,320,2012-10-19 18:20:00
2:00 PM,71.6,8.6,9,29.92,10.0,WNW,17.3,27.6,N/A,,Clear,300,2012-10-19 19:00:00
2:20 PM,73.4,10.4,9,29.91,10.0,WNW,13.8,25.3,N/A,,Clear,300,2012-10-19 19:20:00
2:40 PM,73.4,12.2,10,29.89,10.0,WNW,16.1,23.0,N/A,,Clear,300,2012-10-19 19:40:00
3:00 PM,73.4,14.0,10,29.88,10.0,NW,18.4,-,N/A,,Clear,310,2012-10-19 20:00:00
4:00 PM,75.2,17.6,11,29.86,10.0,NW,12.7,-,N/A,,Clear,320,2012-10-19 21:00:00
4:20 PM,75.2,19.4,12,29.85,10.0,NW,13.8,21.9,N/A,,Clear,310,2012-10-19 21:20:00
4:40 PM,75.2,19.4,12,29.85,10.0,NW,10.4,-,N/A,,Clear,310,2012-10-19 21:40:00
5:00 PM,75.2,21.2,13,29.84,10.0,WNW,12.7,19.6,N/A,,Clear,290,2012-10-19 22:00:00
5:40 PM,73.4,23.0,15,29.83,10.0,West,8.1,-,N/A,,Clear,280,2012-10-19 22:40:00
6:00 PM,71.6,24.8,17,29.83,10.0,WSW,10.4,-,N/A,,Clear,250,2012-10-19 23:00:00
6:40 PM,64.4,24.8,22,29.84,9.0,West,6.9,-,N/A,,Clear,260,2012-10-19 23:40:00
7:00 PM,62.6,23.0,22,29.84,10.0,West,6.9,-,N/A,,Clear,260,2012-10-20 00:00:00
7:40 PM,60.8,23.0,23,29.84,10.0,WSW,4.6,-,N/A,,Clear,240,2012-10-20 00:40:00
8:00 PM,59.0,23.0,25,29.84,10.0,SW,3.5,-,N/A,,Clear,220,2012-10-20 01:00:00
8:20 PM,59.0,23.0,25,29.84,10.0,SW,3.5,-,N/A,,Scattered Clouds,230,2012-10-20 01:20:00
9:00 PM,57.2,26.6,31,29.84,10.0,NNE,5.8,-,N/A,,Partly Cloudy,30,2012-10-20 02:00:00
9:20 PM,55.4,26.6,33,29.84,10.0,ENE,6.9,-,N/A,,Partly Cloudy,70,2012-10-20 02:20:00
9:40 PM,57.2,24.8,29,29.84,10.0,ESE,6.9,-,N/A,,Clear,120,2012-10-20 02:40:00
10:00 PM,53.6,23.0,30,29.84,10.0,SE,8.1,-,N/A,,Clear,140,2012-10-20 03:00:00
10:40 PM,53.6,23.0,30,29.84,10.0,SE,6.9,-,N/A,,Clear,130,2012-10-20 03:40:00
11:00 PM,51.8,21.2,30,29.84,10.0,ESE,5.8,-,N/A,,Clear,110,2012-10-20 04:00:00
11:20 PM,50.0,23.0,35,29.84,10.0,SE,6.9,-,N/A,,Partly Cloudy,140,2012-10-20 04:20:00
11:40 PM,50.0,24.8,37,29.83,10.0,SSE,5.8,-,N/A,,Partly Cloudy,150,2012-10-20 04:40:00